This is the latest recevied weather packets stored in our database for station/object IZ1UQG-1. If no packets are shown the sender has not sent any weather packets the latest 10 day(s).
| Time | Temp. | Humidity | Pressure | Rain* | Wind** | Luminosity | Snow |
|---|---|---|---|---|---|---|---|
| 1777090757 | 14.44° C | 57% | 1016 hPa | 162.31 mm | - | - | - |
| 1777090457 | 14.44° C | 56% | 1015.8 hPa | 227.58 mm | - | - | - |
| 1777090157 | 14.44° C | 56% | 1015.8 hPa | 200.66 mm | - | - | - |
| 1777089857 | 14.44° C | 56% | 1015.7 hPa | 179.32 mm | - | - | - |
| 1777089557 | 15° C | 56% | 1015.8 hPa | 126.49 mm | - | - | - |
| 1777089257 | 15° C | 56% | 1015.8 hPa | 248.92 mm | - | - | - |
| 1777088957 | 15° C | 56% | 1015.6 hPa | 224.03 mm | - | - | - |
| 1777088657 | 15° C | 56% | 1015.6 hPa | 185.17 mm | - | - | - |
| 1777088357 | 15° C | 56% | 1015.6 hPa | 133.86 mm | - | - | - |
| 1777088057 | 15° C | 56% | 1015.7 hPa | 230.12 mm | - | - | - |
| 1777087757 | 15° C | 56% | 1015.6 hPa | 226.57 mm | - | - | - |
| 1777087457 | 15° C | 56% | 1015.6 hPa | 221.49 mm | - | - | - |
| 1777087157 | 15° C | 55% | 1015.8 hPa | 150.88 mm | - | - | - |
| 1777086857 | 15° C | 55% | 1015.8 hPa | 238 mm | - | - | - |
| 1777086557 | 15° C | 55% | 1015.8 hPa | 224.54 mm | - | - | - |
| 1777086257 | 15° C | 55% | 1015.5 hPa | 198.63 mm | - | - | - |
| 1777085957 | 15° C | 55% | 1015.8 hPa | 112.52 mm | - | - | - |
| 1777085657 | 15.56° C | 55% | 1015.7 hPa | 190.25 mm | - | - | - |
| 1777085357 | 15.56° C | 55% | 1015.8 hPa | 186.69 mm | - | - | - |
| 1777085057 | 15.56° C | 54% | 1015.7 hPa | 185.67 mm | - | - | - |
| 1777084757 | 15.56° C | 54% | 1015.7 hPa | 87.63 mm | - | - | - |
| 1777084457 | 15.56° C | 54% | 1015.6 hPa | 152.4 mm | - | - | - |
| 1777084157 | 15.56° C | 54% | 1015.6 hPa | 178.82 mm | - | - | - |
| 1777083857 | 15.56° C | 54% | 1015.9 hPa | 177.29 mm | - | - | - |
| 1777083557 | 15.56° C | 54% | 1015.7 hPa | 157.23 mm | - | - | - |
* Rain latest hour (hover to see other rain measurements)
** Current wind speed in m/s (hover to see current wind gust speed)